Flag for Japan Weather past 2 weeks in Utsunomiya, Japan

Now
68 °F

Mild.


Feels Like: 68 °F
Forecast: 53 / 60 °F
Wind: 6 mph from Southwest

Location: Mito

Current Time: Oct 21, 2014 at 1:23:04 PM

Latest Report: Oct 21, 2014 at 12:00 PM


Visibility: N/A

Pressure: 30.03 "Hg

Humidity: 84%

Dew point: 63 °F

Location of UtsunomiyaLocation

Historic Weather in Utsunomiya — Graph

°F

Utsunomiya temperature yesterday

Maximum temperature yesterday: 74 °F (at 11:00 AM)
Minimum temperature yesterday: 51 °F (at 3:00 AM)
Average temperature yesterday: 62 °F

Past Weeks' High & Low Weather Summary

 TemperatureHumidityPressure
High78 °F (Oct 14, 10:00 AM)97% (Oct 6, 12:00 PM)30.38 "Hg (Oct 6, 12:00 PM)
Low44 °F (Oct 18, 6:00 AM)37% (Oct 14, 2:00 PM)28.94 "Hg (Oct 6, 12:00 PM)
Average62 °F75%30.07 "Hg
* Reported Oct 6 12:00 Noon — Oct 21 12:00 Noon, Utsunomiya, Weather by CustomWeather, © 2014

Note: Actual official high and low records may vary slightly from our data, if they occured in-between our weather recording intervals... More about our weather records

Advertising

Utsunomiya weather history for previous 24 hours

 ConditionsComfort  
Time TempWeatherWind HumidityBarometerVisibility
12:00 PM
Oct 21
68 °FMild.6 mph84%30.03 "HgN/A
11:00 AM66 °FMild.5 mph88%30.06 "HgN/A
10:00 AM65 °FMild.3 mph91%30.08 "HgN/A
9:00 AM64 °FLight rain. Overcast.2 mph91%30.10 "Hg5 mi
8:00 AM63 °FMild.2 mph90%30.11 "HgN/A
7:00 AM62 °FCool.2 mph93%30.12 "HgN/A
6:00 AM60 °FCool.1 mph97%30.11 "HgN/A
5:00 AM60 °FCool.2 mph97%30.11 "HgN/A
4:00 AM61 °FCool.3 mph95%30.10 "HgN/A
3:00 AM62 °FOvercast.1 mph95%30.11 "Hg5 mi
2:00 AM61 °FCool.2 mph97%30.14 "HgN/A
1:00 AM61 °FCool.2 mph97%30.16 "HgN/A
12:00 AM61 °FCool.2 mph97%30.18 "HgN/A
11:00 PM
Oct 20
62 °FCool.2 mph94%30.19 "HgN/A
10:00 PM62 °FMild.2 mph94%30.19 "HgN/A
9:00 PM62 °FLight rain. Overcast.2 mph97%30.20 "Hg5 mi
8:00 PM63 °FMild.1 mph96%30.21 "HgN/A
7:00 PM63 °FMild.2 mph94%30.22 "HgN/A
6:00 PM64 °FMild.2 mph91%30.21 "HgN/A
5:00 PM66 °FMild.2 mph83%30.19 "HgN/A
4:00 PM70 °FMild.5 mph64%30.18 "HgN/A
3:00 PM71 °FOvercast.6 mph59%30.19 "Hg12 mi
2:00 PM73 °FMild.6 mph54%30.18 "HgN/A
Weather by CustomWeather, © 2014

See weather overviewHow to use our weather pages